Regional Weather Roundup
Issued by NWS

Home | Current Version | Previous Version | Text Only | Print | Product List | Glossary Off
Versions: 1 2 3 4 5 6 7 8 9 10 11 12 13 14 15 16 17 18 19 20 21 22 23 24 25 26 27 28 29 30 31 32 33 34 35 36 37 38 39 40 41 42 43 44 45 46 47 48 49 50

300
ASUS43 KFSD 211810
RWRSD

WEATHER ROUNDUP FOR SOUTH DAKOTA
NATIONAL WEATHER SERVICE SIOUX FALLS SD
1200 PM CST TUE FEB 21 2017

NOTE: "FAIR" INDICATES FEW OR NO CLOUDS BELOW 12,000 FEET WITH NO
SIGNIFICANT WEATHER AND/OR OBSTRUCTIONS TO VISIBILITY.


SDZ001>005-009-010-012>017-211900-
NORTHWEST AND NORTH CENTRAL SOUTH DAKOTA

CITY           SKY/WX    TMP DP  RH WIND       PRES   REMARKS
BUFFALO          N/A     60  31  33 W9        29.66F
FAITH            N/A     62  37  39 SW14      29.73S
MOBRIDGE       SUNNY     53  35  50 W3        29.70R
$$

SDZ012>016-024>037-041>051-057-063-072>074-211900-
SOUTHWEST AND SOUTH CENTRAL SOUTH DAKOTA

CITY           SKY/WX    TMP DP  RH WIND       PRES   REMARKS
RAPID CTY ARPT SUNNY     67  31  26 W32G41    29.74F
PIERRE         SUNNY     64  36  35 W6        29.73F
CUSTER         MOSUNNY   54  31  41 W14G29    29.87S
ELLSWORTH AFB  SUNNY     67  33  27 W17G31    29.75S
PHILIP         SUNNY     70  35  27 W17G23    29.74R
PINE RIDGE     SUNNY     67  33  28 W30G41    29.82F
SPEARFISH      FAIR      61  32  33 SW24G32   29.75F
WINNER         FAIR      71  33  24 W20       29.76F
$$

SDZ004>011-016>023-039-040-211900-
NORTHEAST SOUTH DAKOTA

CITY           SKY/WX    TMP DP  RH WIND       PRES   REMARKS
ABERDEEN       MOSUNNY   51  37  58 W8        29.72S
WATERTOWN      MOSUNNY   49  38  65 S9        29.73F
BROOKINGS      PTSUNNY   53  36  52 SW13      29.75F
SISSETON         N/A     53  40  61 W12       29.68F
$$

SDZ017-020-022-023-036>040-048>070-211900-
SOUTHEAST SOUTH DAKOTA

CITY           SKY/WX    TMP DP  RH WIND       PRES   REMARKS
SIOUX FALLS    MOSUNNY   57  38  48 SW10      29.79F
HURON          SUNNY     59  38  45 S5        29.74F
CHAMBERLAIN    SUNNY     65  36  34 W5        29.76S
MITCHELL       SUNNY     62  34  35 W12       29.77F
YANKTON        SUNNY     64  30  27 SW17G24   29.79F
$$

ABBREVIATIONS USED IN REMARKS
   TC - TEMPERATURE IN CELSIUS
  WCI - WIND CHILL INDEX
   HX - HEAT INDEX
  VSB - VISIBILITY





USA.gov is the U.S. government's official web portal to all federal, state and local government web resources and services.